Torna al catalogo

STARLINK-32671

AttivoComunicazioniVLEO
NORAD 62209·PAYLOAD·🇺🇸 United States

Lanciato Dec 4, 2024 da Cape Canaveral Space Force Station

Loading…

Prossimi Passaggi (prossime 24 ore)

TLE

AggiornatoSource: CelesTrak SupGP

Epoca: Sep 14, 2026, 21:34 UTC

1 62209C 24229T   26257.89909722  .00016288  00000+0  59003-3 0  2577
2 62209  42.9996 282.5884 0001350 266.5104  86.1943 15.27565188    10

Traccia STARLINK-32671 in tempo reale con AllMySat

Download on the App Store